YN9ZAM-13 Weather Reports


time (UTC)temp
C
wind
direction
speed
KPH
gust
KPH
rain 1hr
cm
rain 24hr
cm
rain mn
cm
humidity
%
barometer
mb
20260507143407 26 57 6.4 12.9 0.00 0.00 0.00 62 1013.0
20260507142406 27 57 6.4 12.9 0.00 0.00 0.00 62 1013.0
20260507141406 27 57 6.4 12.9 0.00 0.00 0.00 62 1013.0
20260507140406 28 57 6.4 12.9 0.00 0.00 0.00 62 1013.0
20260507135405 28 57 6.4 12.9 0.00 0.00 0.00 62 1013.0
20260507134405 28 57 6.4 12.9 0.00 0.00 0.00 62 1013.0
20260507133405 22 51 4.8 8.0 0.00 0.00 0.00 71 1013.0
20260507132405 23 51 4.8 8.0 0.00 0.00 0.00 71 1013.0
20260507131404 23 51 4.8 8.0 0.00 0.00 0.00 71 1013.0
20260507130404 24 51 4.8 8.0 0.00 0.00 0.00 71 1013.0
20260507125404 25 51 4.8 8.0 0.00 0.00 0.00 71 1013.0
20260507124403 25 51 4.8 8.0 0.00 0.00 0.00 71 1013.0
20260507123403 20 47 4.8 8.0 0.00 0.00 0.00 76 1013.0
20260507122402 20 47 4.8 8.0 0.00 0.00 0.00 76 1013.0
20260507121402 20 47 4.8 8.0 0.00 0.00 0.00 76 1013.0
20260507120402 21 47 4.8 8.0 0.00 0.00 0.00 76 1013.0
20260507115402 21 47 4.8 8.0 0.00 0.00 0.00 76 1013.0
20260507114401 22 47 4.8 8.0 0.00 0.00 0.00 76 1013.0
20260507113401 20 47 6.4 11.3 0.00 0.00 0.00 73 1013.0
20260507112400 20 47 6.4 11.3 0.00 0.00 0.00 73 1012.0
20260507111400 20 47 6.4 11.3 0.00 0.00 0.00 73 1012.0
20260507110400 21 47 6.4 11.3 0.00 0.00 0.00 73 1012.0
20260507105400 21 47 6.4 11.3 0.00 0.00 0.00 73 1012.0
20260507104359 21 47 6.4 11.3 0.00 0.00 0.00 73 1012.0
20260507103359 22 47 6.4 11.3 0.00 0.00 0.00 73 1012.0
20260507102358 22 47 6.4 11.3 0.00 0.00 0.00 73 1012.0
20260507101358 23 47 6.4 11.3 0.00 0.00 0.00 73 1012.0
20260507100358 23 47 6.4 11.3 0.00 0.00 0.00 73 1012.0
20260507095358 23 47 6.4 11.3 0.00 0.00 0.00 73 1012.0
20260507094357 24 47 6.4 11.3 0.00 0.00 0.00 73 1012.0
20260507093357 25 47 6.4 11.3 0.00 0.00 0.00 73 1012.0
20260507092356 21 50 4.8 6.4 0.00 0.00 0.00 71 1012.0
20260507091356 21 50 4.8 6.4 0.00 0.00 0.00 71 1012.0
20260507090356 22 50 4.8 6.4 0.00 0.00 0.00 71 1012.0
20260507085355 22 50 4.8 6.4 0.00 0.00 0.00 71 1012.0
20260507084355 23 50 4.8 6.4 0.00 0.00 0.00 71 1012.0
20260507083355 23 50 4.8 6.4 0.00 0.00 0.00 71 1013.0
20260507082354 23 50 4.8 6.4 0.00 0.00 0.00 71 1013.0
20260507081354 24 50 4.8 6.4 0.00 0.00 0.00 71 1013.0
20260507080353 21 50 4.8 4.8 0.00 0.00 0.00 71 1013.0
20260507075353 21 50 4.8 4.8 0.00 0.00 0.00 71 1013.0
20260507074353 22 50 4.8 4.8 0.00 0.00 0.00 71 1013.0
20260507073352 22 50 4.8 4.8 0.00 0.00 0.00 71 1013.0
20260507072352 23 50 4.8 4.8 0.00 0.00 0.00 71 1013.0
20260507071352 23 50 4.8 4.8 0.00 0.00 0.00 71 1013.0
20260507070351 24 50 4.8 4.8 0.00 0.00 0.00 71 1013.0
20260507065351 21 61 6.4 12.9 0.00 0.00 0.00 71 1013.0
20260507064351 21 61 6.4 12.9 0.00 0.00 0.00 71 1013.0
20260507063351 21 61 6.4 12.9 0.00 0.00 0.00 71 1013.0
20260507062350 22 61 6.4 12.9 0.00 0.00 0.00 71 1014.0
20260507061350 22 61 6.4 12.9 0.00 0.00 0.00 71 1014.0
20260507060350 23 61 6.4 12.9 0.00 0.00 0.00 71 1014.0
20260507055349 23 61 6.4 12.9 0.00 0.00 0.00 71 1014.0
20260507054349 23 61 6.4 12.9 0.00 0.00 0.00 71 1014.0
20260507053348 24 61 6.4 12.9 0.00 0.00 0.00 71 1014.0
20260507052348 24 61 6.4 12.9 0.00 0.00 0.00 71 1014.0
20260507051348 25 61 6.4 12.9 0.00 0.00 0.00 71 1014.0
20260507050348 21 61 6.4 12.9 0.00 0.00 0.00 71 1014.0
20260507045347 21 61 6.4 12.9 0.00 0.00 0.00 71 1014.0
20260507044347 22 61 6.4 12.9 0.00 0.00 0.00 71 1014.0
20260507043346 22 61 6.4 12.9 0.00 0.00 0.00 71 1014.0
20260507042346 21 69 6.4 12.9 0.00 0.00 0.00 65 1014.0
20260507041346 22 69 6.4 12.9 0.00 0.00 0.00 65 1014.0
20260507040345 22 69 6.4 12.9 0.00 0.00 0.00 65 1014.0
20260507035345 23 69 6.4 12.9 0.00 0.00 0.00 65 1014.0
20260507034344 23 69 6.4 12.9 0.00 0.00 0.00 65 1014.0
20260507033344 24 69 6.4 14.5 0.00 0.00 0.00 65 1014.0
20260507032344 22 82 6.4 16.1 0.00 0.00 0.00 56 1013.0
20260507031344 23 82 6.4 16.1 0.00 0.00 0.00 56 1013.0
20260507030343 23 82 6.4 16.1 0.00 0.00 0.00 56 1013.0
20260507025343 24 82 6.4 16.1 0.00 0.00 0.00 56 1013.0
20260507024343 25 82 6.4 16.1 0.00 0.00 0.00 56 1013.0
20260507023342 25 82 6.4 16.1 0.00 0.00 0.00 56 1013.0
20260507022341 26 82 6.4 16.1 0.00 0.00 0.00 56 1012.0
20260507021341 26 82 6.4 16.1 0.00 0.00 0.00 56 1012.0
20260507020341 27 82 6.4 16.1 0.00 0.00 0.00 56 1012.0
20260507015341 27 82 6.4 16.1 0.00 0.00 0.00 56 1012.0
20260507014340 23 81 17.7 24.1 0.00 0.00 0.00 45 1012.0
20260507013340 23 81 17.7 24.1 0.00 0.00 0.00 45 1012.0
20260507012340 24 81 17.7 24.1 0.00 0.00 0.00 45 1011.0
20260507011339 25 81 17.7 24.1 0.00 0.00 0.00 45 1011.0
20260507010339 25 81 17.7 24.1 0.00 0.00 0.00 45 1011.0
20260507005338 26 81 17.7 24.1 0.00 0.00 0.00 45 1011.0
20260507004338 26 81 17.7 24.1 0.00 0.00 0.00 45 1011.0
20260507003338 27 81 17.7 24.1 0.00 0.00 0.00 45 1011.0
20260507002338 27 81 17.7 24.1 0.00 0.00 0.00 45 1010.0
20260507001337 28 81 17.7 24.1 0.00 0.00 0.00 45 1010.0
20260507000337 28 81 17.7 24.1 0.00 0.00 0.00 45 1010.0
20260506235336 29 81 17.7 24.1 0.00 0.00 0.00 45 1010.0
20260506234336 30 81 17.7 24.1 0.00 0.00 0.00 45 1010.0
20260506233336 30 81 17.7 24.1 0.00 0.00 0.00 45 1010.0
20260506232336 30 81 17.7 24.1 0.00 0.00 0.00 45 1009.0
20260506231335 31 81 17.7 24.1 0.00 0.00 0.00 45 1009.0
20260506230335 31 81 17.7 24.1 0.00 0.00 0.00 45 1009.0
20260506225335 32 81 17.7 24.1 0.00 0.00 0.00 45 1009.0
20260506224334 32 81 17.7 24.1 0.00 0.00 0.00 45 1009.0
20260506223334 32 81 17.7 24.1 0.00 0.00 0.00 45 1009.0
20260506222334 28 98 16.1 16.1 0.00 0.00 0.00 36 1009.0
20260506221333 29 98 16.1 16.1 0.00 0.00 0.00 36 1009.0
20260506220333 30 98 16.1 16.1 0.00 0.00 0.00 36 1009.0
20260506215332 30 98 16.1 16.1 0.00 0.00 0.00 36 1009.0
20260506214332 30 98 16.1 16.1 0.00 0.00 0.00 36 1009.0
20260506213332 31 98 16.1 16.1 0.00 0.00 0.00 36 1009.0
20260506212331 31 98 16.1 16.1 0.00 0.00 0.00 36 1008.0
20260506211331 32 98 16.1 16.1 0.00 0.00 0.00 36 1008.0
20260506210331 32 98 16.1 16.1 0.00 0.00 0.00 36 1008.0
20260506205330 32 98 16.1 16.1 0.00 0.00 0.00 36 1008.0
20260506204330 33 98 16.1 16.1 0.00 0.00 0.00 36 1008.0
20260506203330 33 98 16.1 16.1 0.00 0.00 0.00 36 1008.0
20260506202329 33 98 16.1 16.1 0.00 0.00 0.00 36 1009.0
20260506201329 34 98 16.1 16.1 0.00 0.00 0.00 36 1009.0
20260506200329 35 98 16.1 16.1 0.00 0.00 0.00 36 1009.0
20260506195328 35 98 16.1 16.1 0.00 0.00 0.00 36 1009.0
20260506194328 36 98 16.1 16.1 0.00 0.00 0.00 36 1009.0
20260506193328 36 98 16.1 16.1 0.00 0.00 0.00 36 1009.0
20260506192327 37 98 16.1 16.1 0.00 0.00 0.00 36 1010.0
20260506191327 37 98 16.1 16.1 0.00 0.00 0.00 36 1010.0
20260506190326 38 98 16.1 16.1 0.00 0.00 0.00 36 1010.0
20260506185326 38 98 16.1 16.1 0.00 0.00 0.00 36 1010.0
20260506184325 33 97 12.9 16.1 0.00 0.00 0.00 38 1010.0
20260506183325 33 97 12.9 16.1 0.00 0.00 0.00 38 1010.0
20260506182325 34 97 12.9 16.1 0.00 0.00 0.00 38 1011.0
20260506181324 34 97 12.9 16.1 0.00 0.00 0.00 38 1011.0
20260506180324 35 97 12.9 16.1 0.00 0.00 0.00 38 1011.0
20260506175324 35 97 14.5 16.1 0.00 0.00 0.00 38 1011.0
20260506174323 31 95 12.9 16.1 0.00 0.00 0.00 40 1012.0
20260506173323 31 95 12.9 16.1 0.00 0.00 0.00 40 1012.0
20260506172323 31 95 12.9 16.1 0.00 0.00 0.00 40 1012.0
20260506171322 32 95 12.9 16.1 0.00 0.00 0.00 40 1012.0
20260506170322 32 95 12.9 16.1 0.00 0.00 0.00 40 1012.0
20260506165322 33 95 14.5 16.1 0.00 0.00 0.00 40 1012.0
20260506164321 31 87 12.9 16.1 0.00 0.00 0.00 46 1013.0
20260506163321 31 87 12.9 16.1 0.00 0.00 0.00 46 1013.0
20260506162321 32 87 12.9 16.1 0.00 0.00 0.00 46 1013.0
20260506161320 32 87 12.9 16.1 0.00 0.00 0.00 46 1013.0
20260506160320 32 87 12.9 16.1 0.00 0.00 0.00 46 1013.0
20260506155320 33 87 12.9 16.1 0.00 0.00 0.00 46 1013.0
20260506154320 33 87 12.9 16.1 0.00 0.00 0.00 46 1013.0
20260506153319 27 75 11.3 17.7 0.00 0.00 0.00 54 1013.0
20260506152319 28 75 11.3 17.7 0.00 0.00 0.00 54 1013.0
20260506151318 28 75 11.3 17.7 0.00 0.00 0.00 54 1013.0
20260506150318 29 75 11.3 17.7 0.00 0.00 0.00 54 1013.0
20260506145318 30 75 11.3 17.7 0.00 0.00 0.00 54 1013.0
20260506144317 30 75 11.3 17.7 0.00 0.00 0.00 54 1013.0